Year,Month,Day,Hour,Minute,Value (Times are PST for windspeed in km/hr)
2007,03,14,00,00,12.40
2007,03,14,00,01,7.40
2007,03,14,00,02,7.60
2007,03,14,00,03,13.00
2007,03,14,00,04,8.50
2007,03,14,00,05,10.20
2007,03,14,00,06,5.10
2007,03,14,00,07,6.00
2007,03,14,00,08,8.60
2007,03,14,00,09,8.90
2007,03,14,00,10,7.60
2007,03,14,00,11,1.60
2007,03,14,00,12,14.50
2007,03,14,00,13,7.50
2007,03,14,00,14,4.90
2007,03,14,00,15,6.70
2007,03,14,00,16,12.60
2007,03,14,00,17,9.10
2007,03,14,00,18,9.60
2007,03,14,00,19,4.40
2007,03,14,00,20,3.50
2007,03,14,00,21,3.30
2007,03,14,00,22,9.50
2007,03,14,00,23,13.00
2007,03,14,00,24,9.10
2007,03,14,00,25,13.00
2007,03,14,00,26,9.30
2007,03,14,00,27,5.90
2007,03,14,00,28,8.50
2007,03,14,00,29,9.20
2007,03,14,00,30,12.30
2007,03,14,00,31,8.00
2007,03,14,00,32,12.90
2007,03,14,00,33,11.60
2007,03,14,00,34,6.10
2007,03,14,00,35,8.00
2007,03,14,00,36,4.70
2007,03,14,00,37,6.40
2007,03,14,00,38,7.90
2007,03,14,00,39,4.90
2007,03,14,00,40,12.40
2007,03,14,00,41,8.70
2007,03,14,00,42,8.40
2007,03,14,00,43,6.90
2007,03,14,00,44,8.40
2007,03,14,00,45,16.90
2007,03,14,00,46,12.30
2007,03,14,00,47,14.30
2007,03,14,00,48,6.10
2007,03,14,00,49,5.60
2007,03,14,00,50,10.50
2007,03,14,00,51,6.80
2007,03,14,00,52,6.40
2007,03,14,00,53,8.50
2007,03,14,00,54,16.40
2007,03,14,00,55,11.70
2007,03,14,00,56,6.90
2007,03,14,00,57,7.10
2007,03,14,00,58,8.20
2007,03,14,00,59,8.00
2007,03,14,01,00,8.30
2007,03,14,01,01,5.00
2007,03,14,01,02,7.50
2007,03,14,01,03,6.70
2007,03,14,01,04,7.60
2007,03,14,01,05,6.80
2007,03,14,01,06,7.00
2007,03,14,01,07,5.10
2007,03,14,01,08,5.40
2007,03,14,01,09,4.80
2007,03,14,01,10,1.90
2007,03,14,01,11,1.60
2007,03,14,01,12,10.90
2007,03,14,01,13,14.10
2007,03,14,01,14,8.50
2007,03,14,01,15,10.40
2007,03,14,01,16,11.50
2007,03,14,01,17,9.70
2007,03,14,01,18,10.90
2007,03,14,01,19,9.70
2007,03,14,01,20,8.90
2007,03,14,01,21,8.70
2007,03,14,01,22,7.00
2007,03,14,01,23,10.10
2007,03,14,01,24,11.30
2007,03,14,01,25,13.30
2007,03,14,01,26,10.50
2007,03,14,01,27,5.70
2007,03,14,01,28,8.40
2007,03,14,01,29,10.50
2007,03,14,01,30,12.60
2007,03,14,01,31,6.00
2007,03,14,01,32,7.10
2007,03,14,01,33,5.40
2007,03,14,01,34,5.10
2007,03,14,01,35,4.60
2007,03,14,01,36,10.30
2007,03,14,01,37,10.10
2007,03,14,01,38,6.50
2007,03,14,01,39,1.80
2007,03,14,01,40,2.50
2007,03,14,01,41,10.40
2007,03,14,01,42,8.00
2007,03,14,01,43,7.00
2007,03,14,01,44,3.10
2007,03,14,01,45,2.00
2007,03,14,01,46,4.50
2007,03,14,01,47,4.70
2007,03,14,01,48,12.80
2007,03,14,01,49,13.90
2007,03,14,01,50,13.30
2007,03,14,01,51,12.30
2007,03,14,01,52,6.00
2007,03,14,01,53,7.80
2007,03,14,01,54,8.80
2007,03,14,01,55,4.70
2007,03,14,01,56,9.60
2007,03,14,01,57,9.40
2007,03,14,01,58,6.20
2007,03,14,01,59,8.30
2007,03,14,02,00,9.00
2007,03,14,02,01,9.00
2007,03,14,02,02,11.10
2007,03,14,02,03,5.10
2007,03,14,02,04,4.20
2007,03,14,02,05,4.70
2007,03,14,02,06,4.90
2007,03,14,02,07,2.40
2007,03,14,02,08,3.10
2007,03,14,02,09,3.60
2007,03,14,02,10,3.00
2007,03,14,02,11,2.50
2007,03,14,02,12,1.20
2007,03,14,02,13,0.90
2007,03,14,02,14,0.70
2007,03,14,02,15,1.50
2007,03,14,02,16,3.10
2007,03,14,02,17,3.90
2007,03,14,02,18,4.50
2007,03,14,02,19,1.60
2007,03,14,02,20,8.70
2007,03,14,02,21,3.00
2007,03,14,02,22,5.60
2007,03,14,02,23,6.60
2007,03,14,02,24,3.90
2007,03,14,02,25,1.50
2007,03,14,02,26,1.50
2007,03,14,02,27,2.10
2007,03,14,02,28,4.30
2007,03,14,02,29,4.30
2007,03,14,02,30,12.30
2007,03,14,02,31,10.70
2007,03,14,02,32,7.40
2007,03,14,02,33,5.80
2007,03,14,02,34,4.30
2007,03,14,02,35,1.50
2007,03,14,02,36,0.60
2007,03,14,02,37,2.40
2007,03,14,02,38,3.60
2007,03,14,02,39,7.30
2007,03,14,02,40,5.70
2007,03,14,02,41,3.10
2007,03,14,02,42,3.60
2007,03,14,02,43,4.30
2007,03,14,02,44,3.30
2007,03,14,02,45,3.50
2007,03,14,02,46,4.20
2007,03,14,02,47,2.70
2007,03,14,02,48,3.30
2007,03,14,02,49,4.40
2007,03,14,02,50,2.70
2007,03,14,02,51,3.90
2007,03,14,02,52,3.70
2007,03,14,02,53,2.70
2007,03,14,02,54,1.30
2007,03,14,02,55,1.20
2007,03,14,02,56,2.70
2007,03,14,02,57,1.60
2007,03,14,02,58,7.00
2007,03,14,02,59,5.60
2007,03,14,03,00,10.80
2007,03,14,03,01,7.50
2007,03,14,03,02,4.80
2007,03,14,03,03,6.20
2007,03,14,03,04,4.70
2007,03,14,03,05,9.50
2007,03,14,03,06,4.30
2007,03,14,03,07,1.20
2007,03,14,03,08,1.00
2007,03,14,03,09,2.10
2007,03,14,03,10,3.10
2007,03,14,03,11,7.60
2007,03,14,03,12,10.50
2007,03,14,03,13,6.70
2007,03,14,03,14,6.00
2007,03,14,03,15,6.40
2007,03,14,03,16,4.80
2007,03,14,03,17,5.00
2007,03,14,03,18,3.10
2007,03,14,03,19,0.30
2007,03,14,03,20,2.80
2007,03,14,03,21,0.10
2007,03,14,03,22,0.30
2007,03,14,03,23,0.00
2007,03,14,03,24,0.10
2007,03,14,03,25,2.00
2007,03,14,03,26,2.60
2007,03,14,03,27,5.00
2007,03,14,03,28,3.90
2007,03,14,03,29,3.40
2007,03,14,03,30,3.50
2007,03,14,03,31,7.70
2007,03,14,03,32,6.70
2007,03,14,03,33,10.10
2007,03,14,03,34,5.90
2007,03,14,03,35,4.30
2007,03,14,03,36,3.20
2007,03,14,03,37,2.50
2007,03,14,03,38,5.30
2007,03,14,03,39,3.00
2007,03,14,03,40,2.50
2007,03,14,03,41,3.80
2007,03,14,03,42,4.00
2007,03,14,03,43,5.50
2007,03,14,03,44,4.80
2007,03,14,03,45,2.90
2007,03,14,03,46,1.20
2007,03,14,03,47,2.30
2007,03,14,03,48,3.90
2007,03,14,03,49,3.70
2007,03,14,03,50,6.90
2007,03,14,03,51,9.10
2007,03,14,03,52,6.30
2007,03,14,03,53,4.20
2007,03,14,03,54,7.80
2007,03,14,03,55,6.80
2007,03,14,03,56,6.20
2007,03,14,03,57,1.70
2007,03,14,03,58,3.00
2007,03,14,03,59,5.20
2007,03,14,04,00,4.20
2007,03,14,04,01,2.90
2007,03,14,04,02,4.50
2007,03,14,04,03,0.60
2007,03,14,04,04,3.10
2007,03,14,04,05,5.00
2007,03,14,04,06,5.30
2007,03,14,04,07,9.50
2007,03,14,04,08,4.00
2007,03,14,04,09,5.70
2007,03,14,04,10,1.90
2007,03,14,04,11,1.10
2007,03,14,04,12,0.30
2007,03,14,04,13,1.20
2007,03,14,04,14,3.10
2007,03,14,04,15,1.80
2007,03,14,04,16,0.50
2007,03,14,04,17,0.00
2007,03,14,04,18,0.00
2007,03,14,04,19,0.10
2007,03,14,04,20,0.60
2007,03,14,04,21,2.40
2007,03,14,04,22,4.20
2007,03,14,04,23,3.20
2007,03,14,04,24,0.60
2007,03,14,04,25,0.30
2007,03,14,04,26,2.40
2007,03,14,04,27,0.80
2007,03,14,04,28,1.70
2007,03,14,04,29,0.10
2007,03,14,04,30,1.60
2007,03,14,04,31,2.20
2007,03,14,04,32,2.90
2007,03,14,04,33,0.60
2007,03,14,04,34,1.10
2007,03,14,04,35,1.60
2007,03,14,04,36,1.90
2007,03,14,04,37,1.40
2007,03,14,04,38,1.80
2007,03,14,04,39,2.30
2007,03,14,04,40,0.80
2007,03,14,04,41,2.10
2007,03,14,04,42,3.00
2007,03,14,04,43,0.80
2007,03,14,04,44,2.20
2007,03,14,04,45,0.30
2007,03,14,04,46,0.00
2007,03,14,04,47,1.70
2007,03,14,04,48,2.40
2007,03,14,04,49,0.90
2007,03,14,04,50,0.00
2007,03,14,04,51,1.30
2007,03,14,04,52,0.00
2007,03,14,04,53,0.30
2007,03,14,04,54,0.00
2007,03,14,04,55,0.00
2007,03,14,04,56,0.00
2007,03,14,04,57,0.00
2007,03,14,04,58,1.00
2007,03,14,04,59,0.20
2007,03,14,05,00,0.00
2007,03,14,05,01,0.00
2007,03,14,05,02,0.00
2007,03,14,05,03,0.00
2007,03,14,05,04,0.00
2007,03,14,05,05,0.00
2007,03,14,05,06,0.10
2007,03,14,05,07,0.00
2007,03,14,05,08,0.10
2007,03,14,05,09,0.60
2007,03,14,05,10,0.70
2007,03,14,05,11,1.70
2007,03,14,05,12,2.30
2007,03,14,05,13,1.20
2007,03,14,05,14,2.20
2007,03,14,05,15,0.10
2007,03,14,05,16,1.40
2007,03,14,05,17,1.10
2007,03,14,05,18,1.50
2007,03,14,05,19,0.30
2007,03,14,05,20,0.60
2007,03,14,05,21,0.00
2007,03,14,05,22,0.90
2007,03,14,05,23,0.10
2007,03,14,05,24,1.60
2007,03,14,05,25,2.50
2007,03,14,05,26,4.00
2007,03,14,05,27,3.60
2007,03,14,05,28,3.60
2007,03,14,05,29,4.50
2007,03,14,05,30,3.70
2007,03,14,05,31,5.10
2007,03,14,05,32,1.90
2007,03,14,05,33,1.20
2007,03,14,05,34,0.80
2007,03,14,05,35,4.10
2007,03,14,05,36,3.50
2007,03,14,05,37,0.00
2007,03,14,05,38,0.40
2007,03,14,05,39,0.90
2007,03,14,05,40,4.40
2007,03,14,05,41,6.40
2007,03,14,05,42,0.80
2007,03,14,05,43,3.90
2007,03,14,05,44,5.20
2007,03,14,05,45,5.20
2007,03,14,05,46,7.20
2007,03,14,05,47,4.20
2007,03,14,05,48,1.70
2007,03,14,05,49,3.90
2007,03,14,05,50,15.50
2007,03,14,05,51,4.90
2007,03,14,05,52,5.80
2007,03,14,05,53,3.00
2007,03,14,05,54,2.30
2007,03,14,05,55,2.50
2007,03,14,05,56,1.80
2007,03,14,05,57,0.60
2007,03,14,05,58,2.50
2007,03,14,05,59,0.20
2007,03,14,06,00,0.40
2007,03,14,06,01,3.20
2007,03,14,06,02,1.90
2007,03,14,06,03,2.60
2007,03,14,06,04,1.20
2007,03,14,06,05,1.90
2007,03,14,06,06,2.20
2007,03,14,06,07,6.60
2007,03,14,06,08,9.20
2007,03,14,06,09,9.70
2007,03,14,06,10,5.90
2007,03,14,06,11,10.00
2007,03,14,06,12,9.20
2007,03,14,06,13,6.50
2007,03,14,06,14,5.20
2007,03,14,06,15,5.10
2007,03,14,06,16,4.80
2007,03,14,06,17,9.30
2007,03,14,06,18,6.80
2007,03,14,06,19,6.80
2007,03,14,06,20,6.10
2007,03,14,06,21,5.50
2007,03,14,06,22,6.60
2007,03,14,06,23,9.90
2007,03,14,06,24,10.00
2007,03,14,06,25,8.70
2007,03,14,06,26,2.40
2007,03,14,06,27,3.50
2007,03,14,06,28,4.30
2007,03,14,06,29,5.20
2007,03,14,06,30,5.20
2007,03,14,06,31,4.20
2007,03,14,06,32,4.60
2007,03,14,06,33,7.50
2007,03,14,06,34,5.10
2007,03,14,06,35,3.40
2007,03,14,06,36,3.30
2007,03,14,06,37,5.00
2007,03,14,06,38,5.60
2007,03,14,06,39,7.70
2007,03,14,06,40,3.60
2007,03,14,06,41,4.30
2007,03,14,06,42,4.20
2007,03,14,06,43,3.90
2007,03,14,06,44,5.80
2007,03,14,06,45,5.50
2007,03,14,06,46,11.10
2007,03,14,06,47,5.50
2007,03,14,06,48,5.10
2007,03,14,06,49,5.30
2007,03,14,06,50,6.40
2007,03,14,06,51,3.50
2007,03,14,06,52,4.10
2007,03,14,06,53,3.20
2007,03,14,06,54,6.20
2007,03,14,06,55,6.90
2007,03,14,06,56,7.80
2007,03,14,06,57,3.50
2007,03,14,06,58,1.60
2007,03,14,06,59,1.70
2007,03,14,07,00,1.40
2007,03,14,07,01,2.40
2007,03,14,07,02,1.90
2007,03,14,07,03,1.30
2007,03,14,07,04,1.00
2007,03,14,07,05,0.10
2007,03,14,07,06,0.00
2007,03,14,07,07,0.20
2007,03,14,07,08,0.00
2007,03,14,07,09,0.00
2007,03,14,07,10,0.00
2007,03,14,07,11,0.00
2007,03,14,07,12,0.00
2007,03,14,07,13,0.10
2007,03,14,07,14,0.00
2007,03,14,07,15,0.00
2007,03,14,07,16,1.10
2007,03,14,07,17,3.20
2007,03,14,07,18,0.20
2007,03,14,07,19,1.60
2007,03,14,07,20,4.90
2007,03,14,07,21,4.90
2007,03,14,07,22,4.20
2007,03,14,07,23,4.10
2007,03,14,07,24,4.00
2007,03,14,07,25,0.70
2007,03,14,07,26,0.90
2007,03,14,07,27,0.40
2007,03,14,07,28,0.00
2007,03,14,07,29,0.20
2007,03,14,07,30,1.90
2007,03,14,07,31,6.00
2007,03,14,07,32,7.70
2007,03,14,07,33,0.60
2007,03,14,07,34,1.40
2007,03,14,07,35,2.30
2007,03,14,07,36,1.50
2007,03,14,07,37,10.20
2007,03,14,07,38,6.40
2007,03,14,07,39,3.10
2007,03,14,07,40,7.90
2007,03,14,07,41,2.20
2007,03,14,07,42,5.30
2007,03,14,07,43,0.70
2007,03,14,07,44,4.20
2007,03,14,07,45,4.80
2007,03,14,07,46,5.00
2007,03,14,07,47,3.60
2007,03,14,07,48,3.40
2007,03,14,07,49,4.30
2007,03,14,07,50,5.50
2007,03,14,07,51,2.60
2007,03,14,07,52,3.50
2007,03,14,07,53,3.10
2007,03,14,07,54,1.80
2007,03,14,07,55,2.40
2007,03,14,07,56,0.60
2007,03,14,07,57,2.00
2007,03,14,07,58,0.90
2007,03,14,07,59,2.30
2007,03,14,08,00,3.70
2007,03,14,08,01,4.40
2007,03,14,08,02,2.80
2007,03,14,08,03,5.70
2007,03,14,08,04,3.50
2007,03,14,08,05,4.10
2007,03,14,08,06,2.00
2007,03,14,08,07,3.90
2007,03,14,08,08,5.10
2007,03,14,08,09,3.90
2007,03,14,08,10,0.40
2007,03,14,08,11,0.60
2007,03,14,08,12,7.60
2007,03,14,08,13,6.20
2007,03,14,08,14,3.80
2007,03,14,08,15,2.30
2007,03,14,08,16,5.00
2007,03,14,08,17,4.70
2007,03,14,08,18,7.10
2007,03,14,08,19,4.10
2007,03,14,08,20,5.30
2007,03,14,08,21,5.90
2007,03,14,08,22,4.80
2007,03,14,08,23,11.50
2007,03,14,08,24,8.70
2007,03,14,08,25,5.20
2007,03,14,08,26,3.10
2007,03,14,08,27,4.60
2007,03,14,08,28,5.40
2007,03,14,08,29,4.10
2007,03,14,08,30,5.90
2007,03,14,08,31,4.10
2007,03,14,08,32,4.60
2007,03,14,08,33,5.60
2007,03,14,08,34,3.90
2007,03,14,08,35,6.70
2007,03,14,08,36,3.80
2007,03,14,08,37,1.70
2007,03,14,08,38,2.70
2007,03,14,08,39,2.20
2007,03,14,08,40,0.50
2007,03,14,08,41,4.10
2007,03,14,08,42,2.40
2007,03,14,08,43,4.00
2007,03,14,08,44,2.60
2007,03,14,08,45,4.80
2007,03,14,08,46,4.00
2007,03,14,08,47,2.80
2007,03,14,08,48,4.40
2007,03,14,08,49,1.90
2007,03,14,08,50,1.90
2007,03,14,08,51,1.10
2007,03,14,08,52,1.90
2007,03,14,08,53,2.00
2007,03,14,08,54,1.50
2007,03,14,08,55,0.80
2007,03,14,08,56,2.00
2007,03,14,08,57,7.10
2007,03,14,08,58,5.70
2007,03,14,08,59,6.00
2007,03,14,09,00,5.10
2007,03,14,09,01,0.90
2007,03,14,09,02,2.60
2007,03,14,09,03,2.90
2007,03,14,09,04,3.90
2007,03,14,09,05,3.70
2007,03,14,09,06,6.30
2007,03,14,09,07,3.90
2007,03,14,09,08,2.70
2007,03,14,09,09,3.30
2007,03,14,09,10,1.40
2007,03,14,09,11,2.50
2007,03,14,09,12,0.00
2007,03,14,09,13,3.00
2007,03,14,09,14,4.50
2007,03,14,09,15,7.00
2007,03,14,09,16,11.30
2007,03,14,09,17,6.30
2007,03,14,09,18,1.00
2007,03,14,09,19,1.40
2007,03,14,09,20,3.80
2007,03,14,09,21,3.20
2007,03,14,09,22,2.50
2007,03,14,09,23,4.00
2007,03,14,09,24,4.70
2007,03,14,09,25,6.30
2007,03,14,09,26,3.40
2007,03,14,09,27,2.80
2007,03,14,09,28,4.30
2007,03,14,09,29,3.00
2007,03,14,09,30,7.20
2007,03,14,09,31,9.30
2007,03,14,09,32,11.30
2007,03,14,09,33,6.50
2007,03,14,09,34,6.80
2007,03,14,09,35,5.80
2007,03,14,09,36,7.60
2007,03,14,09,37,8.50
2007,03,14,09,38,7.40
2007,03,14,09,39,4.10
2007,03,14,09,40,0.10
2007,03,14,09,41,2.30
2007,03,14,09,42,3.90
2007,03,14,09,43,11.90
2007,03,14,09,44,13.00
2007,03,14,09,45,13.30
2007,03,14,09,46,6.90
2007,03,14,09,47,8.00
2007,03,14,09,48,6.80
2007,03,14,09,49,8.90
2007,03,14,09,50,12.30
2007,03,14,09,51,10.20
2007,03,14,09,52,5.10
2007,03,14,09,53,6.50
2007,03,14,09,54,8.50
2007,03,14,09,55,3.70
2007,03,14,09,56,3.10
2007,03,14,09,57,9.20
2007,03,14,09,58,8.00
2007,03,14,09,59,6.80
2007,03,14,10,00,7.20
2007,03,14,10,01,5.10
2007,03,14,10,02,3.40
2007,03,14,10,03,4.30
2007,03,14,10,04,8.40
2007,03,14,10,05,15.30
2007,03,14,10,06,7.70
2007,03,14,10,07,4.00
2007,03,14,10,08,7.10
2007,03,14,10,09,7.60
2007,03,14,10,10,6.20
2007,03,14,10,11,7.50
2007,03,14,10,12,2.50
2007,03,14,10,13,6.60
2007,03,14,10,14,4.20
2007,03,14,10,15,1.80
2007,03,14,10,16,5.00
2007,03,14,10,17,2.60
2007,03,14,10,18,2.30
2007,03,14,10,19,3.70
2007,03,14,10,20,7.10
2007,03,14,10,21,7.60
2007,03,14,10,22,8.60
2007,03,14,10,23,6.10
2007,03,14,10,24,10.20
2007,03,14,10,25,4.20
2007,03,14,10,26,5.60
2007,03,14,10,27,1.90
2007,03,14,10,28,1.90
2007,03,14,10,29,6.90
2007,03,14,10,30,4.10
2007,03,14,10,31,7.20
2007,03,14,10,32,1.70
2007,03,14,10,33,1.20
2007,03,14,10,34,4.10
2007,03,14,10,35,5.50
2007,03,14,10,36,8.10
2007,03,14,10,37,9.90
2007,03,14,10,38,8.80
2007,03,14,10,39,2.70
2007,03,14,10,40,0.80
2007,03,14,10,41,5.00
2007,03,14,10,42,8.50
2007,03,14,10,43,8.70
2007,03,14,10,44,5.90
2007,03,14,10,45,4.70
2007,03,14,10,46,3.10
2007,03,14,10,47,5.10
2007,03,14,10,48,4.20
2007,03,14,10,49,3.80
2007,03,14,10,50,5.30
2007,03,14,10,51,5.60
2007,03,14,10,52,1.90
2007,03,14,10,53,6.80
2007,03,14,10,54,8.60
2007,03,14,10,55,5.20
2007,03,14,10,56,7.10
2007,03,14,10,57,9.50
2007,03,14,10,58,3.60
2007,03,14,10,59,1.90
2007,03,14,11,00,1.90
2007,03,14,11,01,4.70
2007,03,14,11,02,2.60
2007,03,14,11,03,6.60
2007,03,14,11,04,4.50
2007,03,14,11,05,9.40
2007,03,14,11,06,10.20
2007,03,14,11,07,12.50
2007,03,14,11,08,5.60
2007,03,14,11,09,5.60
2007,03,14,11,10,6.00
2007,03,14,11,11,3.00
2007,03,14,11,12,3.90
2007,03,14,11,13,4.40
2007,03,14,11,14,3.00
2007,03,14,11,15,4.40
2007,03,14,11,16,6.80
2007,03,14,11,17,7.10
2007,03,14,11,18,2.30
2007,03,14,11,19,3.60
2007,03,14,11,20,10.30
2007,03,14,11,21,9.20
2007,03,14,11,22,10.90
2007,03,14,11,23,11.90
2007,03,14,11,24,12.20
2007,03,14,11,25,8.80
2007,03,14,11,26,9.10
2007,03,14,11,27,10.60
2007,03,14,11,28,10.20
2007,03,14,11,29,4.50
2007,03,14,11,30,5.50
2007,03,14,11,31,10.50
2007,03,14,11,32,13.40
2007,03,14,11,33,7.80
2007,03,14,11,34,9.60
2007,03,14,11,35,8.80
2007,03,14,11,36,6.50
2007,03,14,11,37,10.50
2007,03,14,11,38,8.10
2007,03,14,11,39,6.40
2007,03,14,11,40,9.50
2007,03,14,11,41,10.00
2007,03,14,11,42,5.70
2007,03,14,11,43,1.00
2007,03,14,11,44,6.60
2007,03,14,11,45,3.00
2007,03,14,11,46,3.10
2007,03,14,11,47,5.80
2007,03,14,11,48,2.80
2007,03,14,11,49,3.20
2007,03,14,11,50,9.00
2007,03,14,11,51,5.40
2007,03,14,11,52,3.30
2007,03,14,11,53,3.10
2007,03,14,11,54,2.00
2007,03,14,11,55,4.60
2007,03,14,11,56,9.70
2007,03,14,11,57,12.80
2007,03,14,11,58,11.30
2007,03,14,11,59,9.60
2007,03,14,12,00,10.30
2007,03,14,12,01,8.80
2007,03,14,12,02,3.60
2007,03,14,12,03,2.60
2007,03,14,12,04,6.70
2007,03,14,12,05,8.00
2007,03,14,12,06,8.10
2007,03,14,12,07,9.70
2007,03,14,12,08,6.10
2007,03,14,12,09,3.60
2007,03,14,12,10,2.30
2007,03,14,12,11,4.80
2007,03,14,12,12,3.40
2007,03,14,12,13,2.50
2007,03,14,12,14,6.30
2007,03,14,12,15,6.40
2007,03,14,12,16,4.10
2007,03,14,12,17,7.20
2007,03,14,12,18,8.30
2007,03,14,12,19,3.30
2007,03,14,12,20,4.30
2007,03,14,12,21,1.10
2007,03,14,12,22,2.00
2007,03,14,12,23,0.30
2007,03,14,12,24,1.40
2007,03,14,12,25,12.20
2007,03,14,12,26,8.90
2007,03,14,12,27,5.20
2007,03,14,12,28,4.30
2007,03,14,12,29,8.50
2007,03,14,12,30,7.50
2007,03,14,12,31,9.70
2007,03,14,12,32,6.30
2007,03,14,12,33,6.60
2007,03,14,12,34,9.30
2007,03,14,12,35,10.80
2007,03,14,12,36,15.10
2007,03,14,12,37,10.90
2007,03,14,12,38,4.50
2007,03,14,12,39,6.00
2007,03,14,12,40,10.70
2007,03,14,12,41,8.50
2007,03,14,12,42,8.10
2007,03,14,12,43,8.00
2007,03,14,12,44,4.90
2007,03,14,12,45,5.90
2007,03,14,12,46,8.30
2007,03,14,12,47,9.30
2007,03,14,12,48,9.00
2007,03,14,12,49,5.30
2007,03,14,12,50,4.80
2007,03,14,12,51,3.10
2007,03,14,12,52,0.50
2007,03,14,12,53,6.30
2007,03,14,12,54,9.70
2007,03,14,12,55,5.70
2007,03,14,12,56,7.90
2007,03,14,12,57,9.30
2007,03,14,12,58,9.10
2007,03,14,12,59,8.30
2007,03,14,13,00,1.40
2007,03,14,13,01,0.30
2007,03,14,13,02,8.80
2007,03,14,13,03,4.00
2007,03,14,13,04,1.80
2007,03,14,13,05,4.00
2007,03,14,13,06,6.40
2007,03,14,13,07,9.10
2007,03,14,13,08,6.90
2007,03,14,13,09,4.50
2007,03,14,13,10,4.20
2007,03,14,13,11,4.70
2007,03,14,13,12,5.70
2007,03,14,13,13,5.90
2007,03,14,13,14,4.60
2007,03,14,13,15,4.70
2007,03,14,13,16,7.60
2007,03,14,13,17,3.00
2007,03,14,13,18,3.50
2007,03,14,13,19,7.40
2007,03,14,13,20,6.90
2007,03,14,13,21,8.90
2007,03,14,13,22,7.60
2007,03,14,13,23,3.80
2007,03,14,13,24,3.50
2007,03,14,13,25,3.30
2007,03,14,13,26,3.00
2007,03,14,13,27,1.60
2007,03,14,13,28,2.90
2007,03,14,13,29,3.10
2007,03,14,13,30,0.60
2007,03,14,13,31,0.10
2007,03,14,13,32,2.50
2007,03,14,13,33,3.10
2007,03,14,13,34,3.10
2007,03,14,13,35,3.30
2007,03,14,13,36,4.70
2007,03,14,13,37,3.50
2007,03,14,13,38,3.90
2007,03,14,13,39,4.20
2007,03,14,13,40,2.60
2007,03,14,13,41,2.20
2007,03,14,13,42,1.40
2007,03,14,13,43,1.20
2007,03,14,13,44,1.10
2007,03,14,13,45,2.30
2007,03,14,13,46,3.90
2007,03,14,13,47,5.60
2007,03,14,13,48,4.60
2007,03,14,13,49,8.60
2007,03,14,13,50,6.30
2007,03,14,13,51,0.90
2007,03,14,13,52,1.90
2007,03,14,13,53,0.70
2007,03,14,13,54,1.90
2007,03,14,13,55,1.90
2007,03,14,13,56,0.00
2007,03,14,13,57,3.30
2007,03,14,13,58,5.80
2007,03,14,13,59,2.60
2007,03,14,14,00,5.20
2007,03,14,14,01,4.40
2007,03,14,14,02,3.50
2007,03,14,14,03,7.00
2007,03,14,14,04,6.10
2007,03,14,14,05,8.30
2007,03,14,14,06,5.50
2007,03,14,14,07,3.60
2007,03,14,14,08,4.60
2007,03,14,14,09,1.10
2007,03,14,14,10,1.00
2007,03,14,14,11,4.40
2007,03,14,14,12,3.20
2007,03,14,14,13,7.70
2007,03,14,14,14,4.30
2007,03,14,14,15,8.40
2007,03,14,14,16,5.50
2007,03,14,14,17,6.40
2007,03,14,14,18,3.60
2007,03,14,14,19,5.10
2007,03,14,14,20,6.00
2007,03,14,14,21,6.80
2007,03,14,14,22,4.30
2007,03,14,14,23,5.90
2007,03,14,14,24,4.70
2007,03,14,14,25,4.40
2007,03,14,14,26,8.60
2007,03,14,14,27,8.50
2007,03,14,14,28,7.80
2007,03,14,14,29,3.20
2007,03,14,14,30,6.60
2007,03,14,14,31,11.90
2007,03,14,14,32,11.00
2007,03,14,14,33,5.50
2007,03,14,14,34,9.10
2007,03,14,14,35,5.50
2007,03,14,14,36,6.80
2007,03,14,14,37,7.50
2007,03,14,14,38,5.60
2007,03,14,14,39,8.00
2007,03,14,14,40,8.10
2007,03,14,14,41,2.40
2007,03,14,14,42,1.50
2007,03,14,14,43,3.70
2007,03,14,14,44,7.40
2007,03,14,14,45,6.20
2007,03,14,14,46,8.10
2007,03,14,14,47,8.30
2007,03,14,14,48,4.20
2007,03,14,14,49,7.00
2007,03,14,14,50,7.20
2007,03,14,14,51,7.40
2007,03,14,14,52,4.40
2007,03,14,14,53,2.30
2007,03,14,14,54,3.90
2007,03,14,14,55,6.20
2007,03,14,14,56,0.70
2007,03,14,14,57,3.00
2007,03,14,14,58,4.70
2007,03,14,14,59,10.80
2007,03,14,15,00,12.30
2007,03,14,15,01,13.10
2007,03,14,15,02,2.80
2007,03,14,15,03,3.10
2007,03,14,15,04,6.00
2007,03,14,15,05,12.30
2007,03,14,15,06,15.80
2007,03,14,15,07,11.60
2007,03,14,15,08,10.60
2007,03,14,15,09,6.80
2007,03,14,15,10,11.00
2007,03,14,15,11,12.10
2007,03,14,15,12,8.40
2007,03,14,15,13,10.60
2007,03,14,15,14,12.20
2007,03,14,15,15,14.40
2007,03,14,15,16,9.60
2007,03,14,15,17,10.20
2007,03,14,15,18,7.80
2007,03,14,15,19,12.00
2007,03,14,15,20,11.00
2007,03,14,15,21,11.80
2007,03,14,15,22,11.60
2007,03,14,15,23,7.90
2007,03,14,15,24,9.80
2007,03,14,15,25,15.00
2007,03,14,15,26,8.50
2007,03,14,15,27,7.70
2007,03,14,15,28,10.10
2007,03,14,15,29,11.90
2007,03,14,15,30,17.10
2007,03,14,15,31,13.10
2007,03,14,15,32,10.60
2007,03,14,15,33,7.60
2007,03,14,15,34,10.80
2007,03,14,15,35,11.40
2007,03,14,15,36,11.30
2007,03,14,15,37,13.60
2007,03,14,15,38,14.80
2007,03,14,15,39,14.40
2007,03,14,15,40,9.50
2007,03,14,15,41,9.10
2007,03,14,15,42,10.10
2007,03,14,15,43,10.80
2007,03,14,15,44,8.50
2007,03,14,15,45,13.70
2007,03,14,15,46,18.00
2007,03,14,15,47,12.90
2007,03,14,15,48,8.80
2007,03,14,15,49,5.10
2007,03,14,15,50,5.50
2007,03,14,15,51,6.30
2007,03,14,15,52,2.30
2007,03,14,15,53,1.70
2007,03,14,15,54,3.60
2007,03,14,15,55,4.10
2007,03,14,15,56,3.10
2007,03,14,15,57,4.50
2007,03,14,15,58,6.40
2007,03,14,15,59,7.40
2007,03,14,16,00,4.40
2007,03,14,16,01,2.10
2007,03,14,16,02,1.80
2007,03,14,16,03,3.10
2007,03,14,16,04,8.00
2007,03,14,16,05,4.70
2007,03,14,16,06,6.20
2007,03,14,16,07,0.00
2007,03,14,16,08,0.50
2007,03,14,16,09,4.30
2007,03,14,16,10,9.50
2007,03,14,16,11,5.30
2007,03,14,16,12,3.20
2007,03,14,16,13,3.50
2007,03,14,16,14,4.00
2007,03,14,16,15,3.20
2007,03,14,16,16,4.40
2007,03,14,16,17,2.80
2007,03,14,16,18,3.90
2007,03,14,16,19,5.80
2007,03,14,16,20,5.40
2007,03,14,16,21,4.90
2007,03,14,16,22,5.30
2007,03,14,16,23,2.70
2007,03,14,16,24,5.20
2007,03,14,16,25,5.80
2007,03,14,16,26,4.60
2007,03,14,16,27,6.20
2007,03,14,16,28,3.00
2007,03,14,16,29,9.60
2007,03,14,16,30,6.90
2007,03,14,16,31,12.40
2007,03,14,16,32,6.90
2007,03,14,16,33,3.40
2007,03,14,16,34,6.20
2007,03,14,16,35,5.30
2007,03,14,16,36,8.90
2007,03,14,16,37,12.60
2007,03,14,16,38,15.10
2007,03,14,16,39,10.70
2007,03,14,16,40,11.40
2007,03,14,16,41,6.90
2007,03,14,16,42,7.00
2007,03,14,16,43,6.90
2007,03,14,16,44,7.00
2007,03,14,16,45,1.90
2007,03,14,16,46,2.70
2007,03,14,16,47,3.00
2007,03,14,16,48,3.50
2007,03,14,16,49,3.50
2007,03,14,16,50,1.40
2007,03,14,16,51,0.90
2007,03,14,16,52,3.70
2007,03,14,16,53,5.40
2007,03,14,16,54,5.30
2007,03,14,16,55,7.60
2007,03,14,16,56,6.60
2007,03,14,16,57,3.80
2007,03,14,16,58,2.00
2007,03,14,16,59,3.10
2007,03,14,17,00,9.70
2007,03,14,17,01,8.10
2007,03,14,17,02,6.50
2007,03,14,17,03,9.10
2007,03,14,17,04,6.00
2007,03,14,17,05,8.90
2007,03,14,17,06,5.40
2007,03,14,17,07,7.20
2007,03,14,17,08,7.00
2007,03,14,17,09,4.60
2007,03,14,17,10,5.30
2007,03,14,17,11,6.50
2007,03,14,17,12,1.30
2007,03,14,17,13,0.00
2007,03,14,17,14,5.10
2007,03,14,17,15,6.10
2007,03,14,17,16,1.80
2007,03,14,17,17,0.60
2007,03,14,17,18,2.50
2007,03,14,17,19,5.70
2007,03,14,17,20,2.40
2007,03,14,17,21,4.10
2007,03,14,17,22,2.90
2007,03,14,17,23,3.20
2007,03,14,17,24,4.00
2007,03,14,17,25,8.60
2007,03,14,17,26,11.40
2007,03,14,17,27,5.60
2007,03,14,17,28,5.50
2007,03,14,17,29,1.80
2007,03,14,17,30,2.30
2007,03,14,17,31,2.00
2007,03,14,17,32,5.30
2007,03,14,17,33,2.60
2007,03,14,17,34,2.10
2007,03,14,17,35,2.80
2007,03,14,17,36,3.90
2007,03,14,17,37,3.10
2007,03,14,17,38,2.90
2007,03,14,17,39,2.50
2007,03,14,17,40,1.90
2007,03,14,17,41,2.10
2007,03,14,17,42,1.60
2007,03,14,17,43,1.40
2007,03,14,17,44,2.10
2007,03,14,17,45,2.10
2007,03,14,17,46,3.50
2007,03,14,17,47,3.30
2007,03,14,17,48,3.40
2007,03,14,17,49,1.90
2007,03,14,17,50,3.90
2007,03,14,17,51,4.90
2007,03,14,17,52,2.50
2007,03,14,17,53,3.40
2007,03,14,17,54,5.00
2007,03,14,17,55,4.50
2007,03,14,17,56,3.90
2007,03,14,17,57,2.30
2007,03,14,17,58,5.80
2007,03,14,17,59,6.40
2007,03,14,18,00,4.60
2007,03,14,18,01,4.20